Location: Lake Lucerne
(45.5315°N, 88.8489°W)
Time: 14:52:57
(UTC-05:00)

Amateur Radio Satellites - All Passes

Search period start: 19 October 2017 14:22
Search period end: 20 October 2017 14:22
Location: Lake Lucerne, 45.5315°N, 88.8489°W

Satellite Date Start Highest point End Downlink Frequencies (MHz)
Time Altitude Azimuth
Gurwin Techsat 1B 19 Oct 14:29:00 14:34:02 43° 261° (W) 14:39:07 435.225
SO-50 19 Oct 14:30:36 14:34:07 21° 37° (NE) 14:37:40 436.795
ITAMSAT 1 19 Oct 14:37:19 14:41:37 27° 63° (ENE) 14:45:56 435.822/435.867
UKube-1 19 Oct 14:43:16 14:47:31 53° 101° (E) 14:51:44 .
VELOX 1 19 Oct 14:43:46 14:47:32 28° 294° (WNW) 14:51:17 145.980
AO-85 19 Oct 14:44:17 14:48:03 47° 311° (NW) 14:51:58 145.980
50 SAT 19 Oct 14:46:23 14:49:38 55° 287° (WNW) 14:52:52 437.505
MOZHAYETS 4 19 Oct 15:06:21 15:09:03 15° 90° (E) 15:11:44
nSIGHT-1 19 Oct 15:10:17 15:13:16 34° 14° (NNE) 15:16:14 .
ITUPSAT 1 19 Oct 15:24:55 15:28:31 21° 93° (E) 15:32:04 437.325
BEESAT 2 19 Oct 15:39:22 15:41:46 15° 325° (NW) 15:44:12 435.950
PCSat 19 Oct 15:39:51 15:42:51 15° 31° (NNE) 15:45:49 145.827
ISS 19 Oct 15:40:24 15:43:33 43° 20° (NNE) 15:46:41 437.550
BEESAT 19 Oct 15:40:43 15:44:55 29° 96° (E) 15:49:04 436.000
DOVE 4 19 Oct 15:52:01 15:54:05 13° 59° (ENE) 15:56:11 437.250
DX 1 19 Oct 15:53:45 15:57:01 21° 297° (WNW) 16:00:17 434.975-435.025
AO-7 19 Oct 16:06:41 16:14:42 53° 258° (WSW) 16:22:47 .
SO-50 19 Oct 16:10:27 16:15:03 73° 237° (WSW) 16:19:42 436.795
ITAMSAT 1 19 Oct 16:15:53 16:20:50 45° 261° (W) 16:25:51 435.822/435.867
UKube-1 19 Oct 16:20:15 16:23:08 18° 298° (WNW) 16:25:59 .
AO-85 19 Oct 16:28:48 16:29:30 10° 334° (NNW) 16:30:11 145.980
CUTE-I 19 Oct 16:40:54 16:43:38 14° 56° (NE) 16:46:22 437.470
MOZHAYETS 4 19 Oct 16:42:05 16:46:37 61° 287° (WNW) 16:51:06
nSIGHT-1 19 Oct 16:46:32 16:49:42 60° 213° (SSW) 16:52:51 .
CUBESAT XI-V 19 Oct 16:50:35 16:54:55 39° 97° (E) 16:59:13 437.345
XW-2C 19 Oct 16:53:35 16:55:12 12° 62° (ENE) 16:56:49 145.795 - 145.815
ITUPSAT 1 19 Oct 17:01:57 17:06:35 49° 290° (WNW) 17:11:11 437.325
HO-68 19 Oct 17:06:57 17:11:18 17° 49° (NE) 17:15:39 435.675
ISS 19 Oct 17:16:56 17:20:00 37° 218° (SW) 17:23:04 437.550
BEESAT 19 Oct 17:18:23 17:22:42 34° 293° (WNW) 17:26:59 436.000
PCSat 19 Oct 17:22:06 17:27:27 56° 53° (NE) 17:32:47 145.827
DOVE 4 19 Oct 17:27:01 17:31:10 68° 259° (W) 17:35:31 437.250
XW-2F 19 Oct 17:37:17 17:40:42 33° 70° (ENE) 17:44:07 145.980 - 146.000
KAITUO 1B 19 Oct 17:37:27 17:40:37 26° 68° (ENE) 17:43:46 145.475/437.950
LilacSat-2 19 Oct 17:40:12 17:43:49 41° 72° (ENE) 17:47:26 437.200
XW-2D 19 Oct 17:48:36 17:52:17 50° 73° (ENE) 17:55:57 145.860 - 145.880
NUDT-PHONESAT 19 Oct 17:52:53 17:56:21 37° 71° (ENE) 17:59:48 437.300
XW-2B 19 Oct 18:01:54 18:05:41 70° 75° (ENE) 18:09:28 145.730 - 145.750
CUBEBUG 2 19 Oct 18:10:22 18:13:08 16° 60° (ENE) 18:15:53 437.445
KKS-1 19 Oct 18:15:54 18:20:26 84° 105° (ESE) 18:24:55 437.445
CUTE-I 19 Oct 18:17:33 18:22:53 85° 73° (ENE) 18:28:15 437.470
XW-2C 19 Oct 18:25:08 18:28:54 60° 259° (W) 18:32:40 145.795 - 145.815
CUBESAT XI-V 19 Oct 18:28:22 18:32:05 25° 295° (WNW) 18:35:47 437.345
YUBILEINY 19 Oct 18:29:50 18:33:01 12° 49° (NE) 18:36:11 435.215
UWE-3 19 Oct 18:49:29 18:52:59 21° 64° (ENE) 18:56:30 435.000/436.395/437.385
HO-68 19 Oct 18:50:44 18:57:51 73° 70° (ENE) 19:05:02 435.675
STARS 19 Oct 18:51:17 18:55:45 82° 104° (ESE) 19:00:12 437.465
CUTE 1.7 + AOD 2 19 Oct 18:53:42 18:57:51 58° 74° (ENE) 19:02:01 437.475
STRAND 1 19 Oct 18:58:47 19:00:01 11° 86° (E) 19:01:15 437.568
SEEDS 19 Oct 19:02:46 19:06:44 44° 72° (ENE) 19:10:43 437.485
PCSat 19 Oct 19:06:11 19:10:28 24° 252° (WSW) 19:14:44 145.827
Oscar 11 19 Oct 19:10:00 19:11:21 11° 59° (ENE) 19:12:41 .
KAITUO 1B 19 Oct 19:11:31 19:14:33 23° 265° (W) 19:17:37 145.475/437.950
XW-2F 19 Oct 19:12:09 19:14:54 19° 267° (W) 19:17:39 145.980 - 146.000
LilacSat-2 19 Oct 19:15:54 19:18:17 16° 268° (W) 19:20:41 437.200
BEESAT 3 19 Oct 19:20:14 19:21:41 12° 30° (NNE) 19:23:09 437.485
XW-2D 19 Oct 19:24:54 19:26:44 13° 270° (W) 19:28:35 145.860 - 145.880
NUDT-PHONESAT 19 Oct 19:27:57 19:30:21 16° 268° (W) 19:32:46 437.300
AAUSAT CUBESAT 2 19 Oct 19:29:29 19:33:18 38° 71° (ENE) 19:37:07 437.432
XW-2A 19 Oct 19:39:57 19:43:22 70° 76° (ENE) 19:46:46 145.665 - 145.685
AO-73 19 Oct 19:42:54 19:47:01 34° 69° (ENE) 19:51:08 145.935
CUBEBUG 2 19 Oct 19:44:28 19:49:07 73° 259° (WSW) 19:53:54 437.445
KKS-1 19 Oct 19:54:24 19:56:19 13° 302° (WNW) 19:58:13 437.445
CUTE-I 19 Oct 20:01:04 20:03:37 13° 272° (W) 20:06:11 437.470
ZACube-1 19 Oct 20:03:57 20:08:28 61° 73° (ENE) 20:13:00 437.345
YUBILEINY 19 Oct 20:23:44 20:32:19 54° 74° (ENE) 20:40:53 435.215
UWE-3 19 Oct 20:24:36 20:29:05 48° 262° (W) 20:33:39 435.000/436.395/437.385
O/OREOS (USA 219) 19 Oct 20:26:14 20:29:52 24° 103° (ESE) 20:33:32 437.305
STARS 19 Oct 20:29:31 20:31:27 13° 302° (WNW) 20:33:22 437.465
CUTE 1.7 + AOD 2 19 Oct 20:31:48 20:34:03 14° 270° (W) 20:36:18 437.475
STRAND 1 19 Oct 20:34:47 20:39:59 83° 103° (ESE) 20:45:08 437.568
Max Valier Satellite 19 Oct 20:36:58 20:38:38 13° 63° (ENE) 20:40:20 145.860
BEESAT 2 19 Oct 20:38:00 20:40:49 18° 37° (NE) 20:43:38 435.950
SEEDS 19 Oct 20:39:49 20:42:38 17° 269° (W) 20:45:28 437.485
HO-68 19 Oct 20:40:42 20:46:13 24° 269° (W) 20:51:47 435.675
Oscar 11 19 Oct 20:42:28 20:46:48 87° 259° (W) 20:51:09 .
FO-29 19 Oct 20:55:25 21:01:26 31° 94° (E) 21:07:58 435.910
BEESAT 3 19 Oct 20:56:08 21:00:06 58° 51° (NE) 21:03:57 437.485
DELFI C3 19 Oct 21:05:05 21:08:39 35° 70° (ENE) 21:12:14 145.870
AAUSAT CUBESAT 2 19 Oct 21:05:54 21:08:54 19° 268° (W) 21:11:54 437.432
AO-73 19 Oct 21:19:21 21:23:15 27° 266° (W) 21:27:11 145.935
AO-85 19 Oct 21:32:13 21:36:22 37° 47° (NE) 21:40:49 145.980
TIGRISAT 19 Oct 21:32:46 21:34:10 11° 87° (E) 21:35:35 435.000
ZACube-1 19 Oct 21:42:22 21:45:07 16° 271° (W) 21:47:52 437.345
EO-88 19 Oct 22:00:13 22:03:51 83° 79° (E) 22:07:31 145.990 - 145.960
O/OREOS (USA 219) 19 Oct 22:04:45 22:09:03 40° 301° (WNW) 22:13:24 437.305
Max Valier Satellite 19 Oct 22:08:21 22:12:01 56° 260° (W) 22:15:43 145.860
BEESAT 2 19 Oct 22:14:58 22:19:01 72° 236° (SW) 22:22:59 435.950
STRAND 1 19 Oct 22:15:30 22:18:29 16° 302° (WNW) 22:21:28 437.568
YUBILEINY 19 Oct 22:21:00 22:28:49 38° 275° (W) 22:36:39 435.215
BEESAT 3 19 Oct 22:34:55 22:37:10 15° 249° (WSW) 22:39:24 437.485
PRISM 19 Oct 22:34:59 22:38:11 21° 94° (E) 22:41:22 437.425
ESTCUBE 1 19 Oct 22:37:49 22:41:32 26° 66° (ENE) 22:45:16 437.505/2401.250
FO-29 19 Oct 22:40:06 22:46:41 58° 290° (WNW) 22:53:59 435.910
DELFI C3 19 Oct 22:40:40 22:43:30 19° 267° (W) 22:46:22 145.870
UNISAT 6 19 Oct 22:51:49 22:56:28 77° 101° (E) 23:01:00 437.425
LO-87 19 Oct 22:52:13 22:55:38 43° 72° (ENE) 22:59:06 145.935 - 145.965
TIGRISAT 19 Oct 23:06:50 23:11:30 82° 283° (WNW) 23:16:01 435.000
AO-85 19 Oct 23:12:39 23:16:45 33° 243° (WSW) 23:21:07 145.980
SPROUT 19 Oct 23:27:18 23:30:33 21° 65° (ENE) 23:33:49 437.525
EO-79 19 Oct 23:57:34 00:00:30 18° 92° (E) 00:03:24 145.935-145.965
AIST 2D 19 Oct 23:57:43 00:01:05 45° 99° (E) 00:04:25 435.315
POLYITAN 1 20 Oct 00:01:57 00:05:06 20° 92° (E) 00:08:12 437.675
VELOX 1 20 Oct 00:06:17 00:10:19 37° 69° (ENE) 00:14:23 145.980
PRISM 20 Oct 00:09:45 00:13:32 36° 291° (WNW) 00:17:20 437.425
ESTCUBE 1 20 Oct 00:14:05 00:18:12 35° 263° (W) 00:22:19 437.505/2401.250
QB50P2 20 Oct 00:21:37 00:25:32 34° 97° (E) 00:29:26 145.880/145.840
NANOSAT C BR1 20 Oct 00:25:35 00:29:23 31° 96° (E) 00:33:08 145.865
LO-87 20 Oct 00:27:26 00:29:16 13° 269° (W) 00:31:08 145.935 - 145.965
FO-29 20 Oct 00:27:49 00:30:33 13° 309° (NW) 00:33:24 435.910
UNISAT 6 20 Oct 00:30:08 00:32:32 14° 301° (WNW) 00:34:53 437.425
RS-15 20 Oct 00:32:38 00:44:07 49° 111° (ESE) 00:55:35 29.354- 29.394
DUCHIFAT 1 20 Oct 00:36:36 00:40:31 35° 97° (E) 00:44:23 145.980
TIGRISAT 20 Oct 00:46:01 00:47:21 11° 303° (WNW) 00:48:42 435.000
BUGSAT 1 20 Oct 00:48:16 00:50:12 13° 89° (E) 00:52:08 437.445
SPROUT 20 Oct 01:02:10 01:06:12 40° 262° (W) 01:10:16 437.525
DX 1 20 Oct 01:14:15 01:18:26 50° 71° (ENE) 01:22:38 434.975-435.025
50 SAT 20 Oct 01:16:35 01:19:47 60° 75° (ENE) 01:23:02 437.505
AIST 2D 20 Oct 01:32:15 01:33:52 13° 296° (WNW) 01:35:29 435.315
EO-79 20 Oct 01:32:24 01:36:29 45° 289° (WNW) 01:40:32 145.935-145.965
POLYITAN 1 20 Oct 01:37:01 01:41:03 41° 290° (WNW) 01:45:01 437.675
UKube-1 20 Oct 01:39:26 01:43:38 59° 72° (ENE) 01:47:54 .
VELOX 1 20 Oct 01:43:24 01:46:52 23° 266° (W) 01:50:22 145.980
M-CUBED/EXP-1 PRIME 20 Oct 01:47:12 01:48:58 13° 98° (E) 01:50:46 437.505
QB50P2 20 Oct 01:57:42 02:01:09 24° 294° (WNW) 02:04:35 145.880/145.840
NANOSAT C BR1 20 Oct 02:01:24 02:04:59 27° 293° (WNW) 02:08:31 145.865
MOZHAYETS 4 20 Oct 02:10:04 02:13:28 21° 63° (ENE) 02:16:53
DUCHIFAT 1 20 Oct 02:12:36 02:15:59 23° 295° (WNW) 02:19:21 145.980
Oscar 19 20 Oct 02:15:21 02:20:21 50° 100° (E) 02:25:18 437.125/150
BUGSAT 1 20 Oct 02:21:46 02:25:59 63° 286° (WNW) 02:30:08 437.445
ITUPSAT 1 20 Oct 02:33:25 02:37:39 32° 66° (ENE) 02:41:54 437.325
NO-84 20 Oct 02:37:15 02:39:34 14° 125° (SE) 02:41:51 435.350 FM
Gurwin Techsat 1B 20 Oct 02:42:27 02:47:46 62° 102° (ESE) 02:53:01 435.225
RS-15 20 Oct 02:44:11 02:56:25 63° 315° (NW) 03:08:34 29.354- 29.394
BEESAT 20 Oct 02:48:55 02:53:27 44° 69° (ENE) 02:58:00 436.000
DX 1 20 Oct 02:52:05 02:54:54 17° 268° (W) 02:57:44 434.975-435.025
UKube-1 20 Oct 03:17:44 03:20:03 14° 270° (W) 03:22:22 .
M-CUBED/EXP-1 PRIME 20 Oct 03:20:11 03:23:35 47° 292° (WNW) 03:27:11 437.505
KKS-1 20 Oct 03:42:17 03:44:15 13° 58° (ENE) 03:46:14 437.445
MOZHAYETS 4 20 Oct 03:45:47 03:50:17 49° 261° (W) 03:54:48
Oscar 19 20 Oct 03:55:20 03:59:20 24° 298° (WNW) 04:03:21 437.125/150
CUBESAT XI-V 20 Oct 03:55:41 04:00:09 49° 71° (ENE) 04:04:36 437.345
AO-7 20 Oct 04:05:18 04:13:16 48° 100° (E) 04:21:11 .
ITUPSAT 1 20 Oct 04:11:06 04:15:25 32° 263° (W) 04:19:46 437.325
NO-84 20 Oct 04:12:07 04:16:25 80° 143° (SE) 04:20:39 435.350 FM
STARS 20 Oct 04:16:39 04:18:19 12° 58° (ENE) 04:19:59 437.465
Gurwin Techsat 1B 20 Oct 04:23:21 04:27:15 21° 300° (WNW) 04:31:07 435.225
ITAMSAT 1 20 Oct 04:26:03 04:31:12 53° 100° (E) 04:36:18 435.822/435.867
BEESAT 20 Oct 04:27:38 04:31:24 23° 266° (W) 04:35:12 436.000
O/OREOS (USA 219) 20 Oct 04:55:49 04:57:13 11° 43° (NE) 04:58:37 437.305
RS-15 20 Oct 05:01:15 05:11:59 33° 346° (NNW) 05:22:28 29.354- 29.394
KKS-1 20 Oct 05:15:44 05:20:10 81° 258° (WSW) 05:24:39 437.445
DOVE 4 20 Oct 05:22:47 05:27:07 29° 95° (E) 05:31:35 437.250
CUBESAT XI-V 20 Oct 05:34:30 05:37:47 19° 269° (W) 05:41:04 437.345
STARS 20 Oct 05:49:34 05:53:58 86° 259° (W) 05:58:25 437.465
NO-84 20 Oct 05:50:24 05:54:13 30° 340° (NNW) 05:57:52 435.350 FM
XW-2C 20 Oct 05:57:11 05:58:32 12° 89° (E) 05:59:53 145.795 - 145.815
AO-7 20 Oct 05:58:15 06:05:59 45° 301° (WNW) 06:13:44 .
ITAMSAT 1 20 Oct 06:06:13 06:10:18 24° 299° (WNW) 06:14:23 435.822/435.867
STRAND 1 20 Oct 06:15:23 06:19:13 22° 61° (ENE) 06:23:05 437.568
HO-68 20 Oct 06:19:57 06:21:29 11° 83° (E) 06:23:00 435.675
SO-50 20 Oct 06:27:47 06:31:03 20° 112° (ESE) 06:34:21 436.795
CUTE-I 20 Oct 06:32:39 06:37:17 29° 95° (E) 06:41:52 437.470
O/OREOS (USA 219) 20 Oct 06:32:57 06:37:34 68° 64° (ENE) 06:42:07 437.305
KAITUO 1B 20 Oct 06:39:41 06:42:51 26° 96° (E) 06:45:58 145.475/437.950
XW-2F 20 Oct 06:40:42 06:44:08 34° 97° (E) 06:47:33 145.980 - 146.000
LilacSat-2 20 Oct 06:45:03 06:48:41 45° 99° (E) 06:52:18 437.200
XW-2D 20 Oct 06:52:39 06:56:21 54° 100° (E) 07:00:00 145.860 - 145.880
NUDT-PHONESAT 20 Oct 06:54:15 06:57:41 37° 98° (E) 07:01:05 437.300
DOVE 4 20 Oct 07:00:16 07:04:50 38° 291° (WNW) 07:09:34 437.250
XW-2B 20 Oct 07:06:04 07:09:50 76° 104° (ESE) 07:13:33 145.730 - 145.750
FO-29 20 Oct 07:13:45 07:16:27 14° 53° (NE) 07:19:14 435.910
RS-15 20 Oct 07:18:08 07:29:02 35° 20° (NNE) 07:39:28 29.354- 29.394
NO-84 20 Oct 07:29:22 07:32:34 21° 1° (N) 07:35:38 435.350 FM
XW-2C 20 Oct 07:29:23 07:33:03 54° 286° (WNW) 07:36:42 145.795 - 145.815
CUBEBUG 2 20 Oct 07:33:48 07:37:24 22° 92° (E) 07:40:54 437.445
YUBILEINY 20 Oct 07:40:22 07:40:58 10° 68° (ENE) 07:41:35 435.215
STRAND 1 20 Oct 07:52:58 07:58:00 57° 259° (W) 08:03:05 437.568
AO-7 20 Oct 07:53:29 07:56:41 13° 324° (NW) 07:59:52 .
HO-68 20 Oct 08:03:27 08:10:38 63° 103° (ESE) 08:17:45 435.675
PCSat 20 Oct 08:06:22 08:11:05 31° 111° (ESE) 08:15:50 145.827
SO-50 20 Oct 08:06:45 08:11:08 54° 311° (NW) 08:15:35 436.795
CUTE 1.7 + AOD 2 20 Oct 08:11:45 08:15:59 86° 105° (ESE) 08:20:11 437.475
UWE-3 20 Oct 08:12:11 08:16:11 30° 95° (E) 08:20:03 435.000/436.395/437.385
CUTE-I 20 Oct 08:12:24 08:17:27 43° 292° (WNW) 08:22:29 437.470
KAITUO 1B 20 Oct 08:13:46 08:16:43 23° 293° (WNW) 08:19:40 145.475/437.950
O/OREOS (USA 219) 20 Oct 08:14:00 08:16:22 14° 262° (W) 08:18:44 437.305
XW-2F 20 Oct 08:15:23 08:18:01 19° 294° (WNW) 08:20:38 145.980 - 146.000
UNISAT 6 20 Oct 08:19:03 08:20:47 12° 57° (ENE) 08:22:30 437.425
SEEDS 20 Oct 08:19:24 08:23:32 65° 100° (E) 08:27:40 437.485
LilacSat-2 20 Oct 08:20:22 08:22:36 15° 296° (WNW) 08:24:49 437.200
XW-2D 20 Oct 08:28:18 08:30:05 13° 297° (WNW) 08:31:52 145.860 - 145.880
Oscar 11 20 Oct 08:28:41 08:31:09 15° 90° (E) 08:33:33 .
NUDT-PHONESAT 20 Oct 08:28:51 08:31:16 17° 295° (WNW) 08:33:40 437.300
XW-2A 20 Oct 08:31:52 08:35:09 51° 100° (E) 08:38:24 145.665 - 145.685
TIGRISAT 20 Oct 08:32:55 08:35:30 15° 60° (ENE) 08:38:07 435.000
AAUSAT CUBESAT 2 20 Oct 08:44:05 08:48:08 53° 100° (E) 08:52:10 437.432
FO-29 20 Oct 08:55:19 09:00:33 86° 78° (ENE) 09:06:15 435.910
AO-73 20 Oct 09:04:20 09:08:36 49° 99° (E) 09:12:44 145.935
NO-84 20 Oct 09:07:11 09:10:52 34° 22° (NNE) 09:14:18 435.350 FM
CUBEBUG 2 20 Oct 09:09:46 09:14:12 43° 290° (WNW) 09:18:30 437.445
ZACube-1 20 Oct 09:26:11 09:30:38 86° 284° (WNW) 09:34:55 437.345
PRISM 20 Oct 09:26:25 09:29:28 21° 65° (ENE) 09:32:32 437.425
YUBILEINY 20 Oct 09:27:15 09:35:39 56° 90° (E) 09:44:05 435.215
nSIGHT-1 20 Oct 09:27:54 09:28:51 11° 132° (SE) 09:29:48 .
RS-15 20 Oct 09:31:45 09:43:52 76° 51° (NE) 09:55:16 29.354- 29.394
Max Valier Satellite 20 Oct 09:37:56 09:39:01 11° 89° (E) 09:40:07 145.860
UWE-3 20 Oct 09:48:38 09:52:35 30° 293° (WNW) 09:56:25 435.000/436.395/437.385
PCSat 20 Oct 09:49:08 09:54:19 45° 310° (NW) 09:59:33 145.827
CUTE 1.7 + AOD 2 20 Oct 09:50:07 09:51:08 11° 301° (WNW) 09:52:09 437.475
SO-50 20 Oct 09:50:28 09:52:37 13° 332° (NNW) 09:54:46 436.795
HO-68 20 Oct 09:51:50 09:57:54 31° 302° (WNW) 10:03:57 435.675
UNISAT 6 20 Oct 09:52:03 09:56:42 85° 76° (ENE) 10:01:26 437.425
SEEDS 20 Oct 09:56:38 09:58:43 14° 299° (WNW) 10:00:49 437.485
ISS 20 Oct 09:58:41 10:01:04 19° 136° (SE) 10:03:27 437.550
Oscar 11 20 Oct 10:03:24 10:07:38 56° 287° (WNW) 10:11:49 .
XW-2A 20 Oct 10:06:32 10:07:25 11° 297° (WNW) 10:08:17 145.665 - 145.685
TIGRISAT 20 Oct 10:06:55 10:11:34 75° 258° (WSW) 10:16:18 435.000
DELFI C3 20 Oct 10:13:47 10:17:33 42° 98° (E) 10:21:20 145.870
AAUSAT CUBESAT 2 20 Oct 10:20:41 10:23:10 16° 297° (WNW) 10:25:39 437.432
AIST 2D 20 Oct 10:34:09 10:36:59 23° 69° (ENE) 10:39:49 435.315
AO-73 20 Oct 10:41:27 10:44:27 18° 297° (WNW) 10:47:23 145.935
FO-29 20 Oct 10:44:27 10:46:39 12° 275° (W) 10:48:55 435.910
NO-84 20 Oct 10:44:41 10:48:24 49° 223° (SW) 10:51:49 435.350 FM
EO-79 20 Oct 10:52:05 10:55:04 19° 63° (ENE) 10:58:05 145.935-145.965
POLYITAN 1 20 Oct 10:56:32 10:59:44 21° 64° (ENE) 11:02:57 437.675
EO-88 20 Oct 10:59:57 11:03:37 79° 103° (ESE) 11:07:13 145.990 - 145.960
PRISM 20 Oct 11:00:46 11:04:31 36° 262° (W) 11:08:18 437.425
nSIGHT-1 20 Oct 11:01:26 11:04:37 75° 149° (SSE) 11:07:49 .
ZACube-1 20 Oct 11:05:14 11:06:07 11° 303° (WNW) 11:07:00 437.345
Max Valier Satellite 20 Oct 11:09:35 11:13:12 55° 287° (WNW) 11:16:47 145.860
QB50P2 20 Oct 11:15:59 11:19:52 35° 69° (ENE) 11:23:46 145.880/145.840
NANOSAT C BR1 20 Oct 11:19:29 11:23:12 31° 68° (ENE) 11:26:59 145.865
YUBILEINY 20 Oct 11:25:00 11:32:49 36° 292° (WNW) 11:40:44 435.215
DUCHIFAT 1 20 Oct 11:30:07 11:33:59 35° 69° (ENE) 11:37:51 145.980
UNISAT 6 20 Oct 11:32:35 11:34:02 11° 273° (W) 11:35:30 437.425
ISS 20 Oct 11:33:59 11:37:14 71° 334° (NNW) 11:40:30 437.550
PCSat 20 Oct 11:36:51 11:39:10 13° 333° (NNW) 11:41:30 145.827
BUGSAT 1 20 Oct 11:40:15 11:42:18 13° 60° (ENE) 11:44:22 437.445
RS-15 20 Oct 11:45:10 11:55:15 35° 255° (WSW) 12:04:57 29.354- 29.394
DELFI C3 20 Oct 11:49:19 11:52:00 18° 295° (WNW) 11:54:41 145.870
LO-87 20 Oct 11:49:53 11:53:20 39° 98° (E) 11:56:45 145.935 - 145.965
Oscar 19 20 Oct 11:58:06 12:00:51 15° 57° (ENE) 12:03:34 437.125/150
ESTCUBE 1 20 Oct 12:03:44 12:07:57 39° 98° (E) 12:12:09 437.505/2401.250
AIST 2D 20 Oct 12:07:14 12:10:06 23° 265° (W) 12:12:57 435.315
BEESAT 2 20 Oct 12:10:50 12:11:46 11° 108° (ESE) 12:12:42 435.950
BEESAT 3 20 Oct 12:24:22 12:28:13 47° 120° (ESE) 12:32:06 437.485
EO-79 20 Oct 12:26:23 12:30:30 47° 261° (W) 12:34:39 145.935-145.965
Gurwin Techsat 1B 20 Oct 12:28:04 12:31:44 19° 59° (ENE) 12:35:25 435.225
POLYITAN 1 20 Oct 12:31:11 12:35:14 42° 262° (W) 12:39:21 437.675
M-CUBED/EXP-1 PRIME 20 Oct 12:34:42 12:37:23 22° 63° (ENE) 12:40:01 437.505
nSIGHT-1 20 Oct 12:38:13 12:41:07 31° 348° (NNW) 12:44:02 .
SPROUT 20 Oct 12:45:24 12:49:08 28° 95° (E) 12:52:50 437.525
QB50P2 20 Oct 12:52:15 12:55:43 24° 266° (W) 12:59:12 145.880/145.840
NANOSAT C BR1 20 Oct 12:55:18 12:58:54 26° 265° (W) 13:02:32 145.865
DUCHIFAT 1 20 Oct 13:06:16 13:09:42 23° 266° (W) 13:13:09 145.980
ISS 20 Oct 13:11:12 13:14:05 28° 353° (N) 13:16:58 437.550
BUGSAT 1 20 Oct 13:12:55 13:17:05 70° 258° (WSW) 13:21:20 437.445
SO-50 20 Oct 13:16:51 13:18:01 11° 23° (NNE) 13:19:11 436.795
AO-7 20 Oct 13:17:27 13:23:11 21° 46° (NE) 13:28:54 .
LO-87 20 Oct 13:24:10 13:26:26 16° 295° (WNW) 13:28:42 145.935 - 145.965
AO-85 20 Oct 13:29:08 13:32:49 44° 119° (ESE) 13:36:37 145.980
VELOX 1 20 Oct 13:29:43 13:34:06 55° 101° (E) 13:38:28 145.980
Oscar 19 20 Oct 13:34:15 13:39:27 89° 269° (W) 13:44:37 437.125/150
ESTCUBE 1 20 Oct 13:40:59 13:44:32 23° 295° (WNW) 13:48:03 437.505/2401.250
BEESAT 2 20 Oct 13:44:50 13:48:51 83° 309° (NW) 13:52:56 435.950
BEESAT 3 20 Oct 14:02:44 14:05:59 23° 319° (NW) 14:09:15 437.485
50 SAT 20 Oct 14:05:26 14:08:34 37° 99° (E) 14:11:39 437.505
Gurwin Techsat 1B 20 Oct 14:05:51 14:11:08 69° 257° (WSW) 14:16:28 435.225
M-CUBED/EXP-1 PRIME 20 Oct 14:09:06 14:11:47 22° 258° (WSW) 14:14:26 437.505
ITAMSAT 1 20 Oct 14:09:29 14:12:36 16° 57° (ENE) 14:15:42 435.822/435.867
nSIGHT-1 20 Oct 14:15:08 14:17:59 28° 8° (N) 14:20:49 .
